H1 CPF 2 NER 2025 11 10 9 314 01 glonass127 H2 1106403 9127 37869 2025 11 10 0 0 0 2025 11 13 23 45 0 900 1 1 0 0 0 1 H9 10 0 60989 0.00000 0 4768691.330 -9599966.457 -23087909.448 10 0 60989 900.00000 0 7270468.897 -8217680.705 -22972839.962 10 0 60989 1800.00000 0 9829409.611 -7042634.169 -22409051.273 10 0 60989 2700.00000 0 12377952.577 -6095899.370 -21407787.839 10 0 60989 3600.00000 0 14846820.930 -5386063.346 -19988855.532 10 0 60989 4500.00000 0 17167738.693 -4909052.194 -18180210.108 10 0 60989 5400.00000 0 19276112.579 -4648506.171 -16017384.770 10 0 60989 6300.00000 0 21113566.032 -4576686.248 -13542769.999 10 0 60989 7200.00000 0 22630219.746 -4655870.405 -10804761.714 10 0 60989 8100.00000 0 23786624.287 -4840177.301 -7856796.317 10 0 60989 9000.00000 0 24555265.756 -5077737.259 -4756293.127 10 0 60989 9900.00000 0 24921583.953 -5313116.429 -1563526.223 10 0 60989 10800.00000 0 24884463.380 -5489890.016 1659551.342 10 0 60989 11700.00000 0 24456179.711 -5553255.107 4850507.641 10 0 60989 12600.00000 0 23661807.060 -5452572.797 7947632.981 10 0 60989 13500.00000 0 22538113.645 -5143733.200 10891119.373 10 0 60989 14400.00000 0 21131994.134 -4591245.052 13624196.717 10 0 60989 15300.00000 0 19498505.525 -3769963.622 16094205.392 10 0 60989 16200.00000 0 17698588.948 -2666386.063 18253586.636 10 0 60989 17100.00000 0 15796571.820 -1279461.253 20060773.972 10 0 60989 18000.00000 0 13857553.019 379118.908 21480970.893 10 0 60989 18900.00000 0 11944777.769 2285158.862 22486802.159 10 0 60989 19800.00000 0 10117108.835 4402720.248 23058828.151 10 0 60989 20700.00000 0 8426696.471 6685374.333 23185913.841 10 0 60989 21600.00000 0 6916941.388 9077896.472 22865446.082 10 0 60989 22500.00000 0 5620833.336 11518335.428 22103395.103 10 0 60989 23400.00000 0 4559733.015 13940375.126 20914218.227 10 0 60989 24300.00000 0 3742647.470 16275894.346 19320606.198 10 0 60989 25200.00000 0 3166029.450 18457621.239 17353074.808 10 0 60989 26100.00000 0 2814110.249 20421774.863 15049407.123 10 0 60989 27000.00000 0 2659753.768 22110585.447 12453954.202 10 0 60989 27900.00000 0 2665798.042 23474588.932 9616804.975 10 0 60989 28800.00000 0 2786829.917 24474599.466 6592838.828 10 0 60989 29700.00000 0 2971319.894 25083275.832 3440677.171 10 0 60989 30600.00000 0 3164028.217 25286213.895 221552.928 10 0 60989 31500.00000 0 3308580.811 25082516.372 -3001880.584 10 0 60989 32400.00000 0 3350105.406 24484813.022 -6166778.018 10 0 60989 33300.00000 0 3237814.545 23518727.649 -9211342.646 10 0 60989 34200.00000 0 2927423.492 22221812.103 -12076053.351 10 0 60989 35100.00000 0 2383297.425 20641990.724 -14704851.867 10 0 60989 36000.00000 0 1580233.367 18835580.186 -17046264.622 10 0 60989 36900.00000 0 504797.868 16864968.530 -19054434.704 10 0 60989 37800.00000 0 -843839.446 14796052.271 -20690041.457 10 0 60989 38700.00000 0 -2453614.411 12695541.222 -21921087.721 10 0 60989 39600.00000 0 -4299833.212 10628246.451 -22723537.767 10 0 60989 40500.00000 0 -6345983.520 8654467.444 -23081792.544 10 0 60989 41400.00000 0 -8545058.029 6827589.893 -22988992.574 10 0 60989 42300.00000 0 -10841334.151 5191996.101 -22447142.847 10 0 60989 43200.00000 0 -13172534.025 3781375.905 -21467058.035 10 0 60989 44100.00000 0 -15472272.751 2617508.322 -20068130.367 10 0 60989 45000.00000 0 -17672690.584 1709563.367 -18277926.285 10 0 60989 45900.00000 0 -19707157.421 1053950.798 -16131621.623 10 0 60989 46800.00000 0 -21512935.308 634718.901 -13671288.321 10 0 60989 47700.00000 0 -23033687.075 424482.862 -10945048.616 10 0 60989 48600.00000 0 -24221726.394 385839.820 -8006115.156 10 0 60989 49500.00000 0 -25039916.171 473207.387 -4911737.428 10 0 60989 50400.00000 0 -25463137.610 635004.941 -1722076.516 10 0 60989 51300.00000 0 -25479270.835 816083.263 1500968.932 10 0 60989 52200.00000 0 -25089648.842 960298.413 4694962.177 10 0 60989 53100.00000 0 -24308968.642 1013120.625 7798129.994 10 0 60989 54000.00000 0 -23164666.068 924168.428 10750543.708 10 0 60989 54900.00000 0 -21695782.618 649562.172 13495257.983 10 0 60989 55800.00000 0 -19951373.248 153999.429 15979386.938 10 0 60989 56700.00000 0 -17988522.238 -587533.287 18155098.950 10 0 60989 57600.00000 0 -15870049.574 -1588482.659 19980513.267 10 0 60989 58500.00000 0 -13662002.187 -2849936.839 21420483.588 10 0 60989 59400.00000 0 -11431032.403 -4360352.377 22447255.818 10 0 60989 60300.00000 0 -9241769.984 -6095811.450 23040989.401 10 0 60989 61200.00000 0 -7154294.040 -8020799.800 23190133.615 10 0 60989 62100.00000 0 -5221806.902 -10089475.044 22891652.495 10 0 60989 63000.00000 0 -3488603.968 -12247375.423 22151094.079 10 0 60989 63900.00000 0 -1988421.889 -14433501.223 20982501.949 10 0 60989 64800.00000 0 -743232.586 -16582685.858 19408169.288 10 0 60989 65700.00000 0 237467.085 -18628161.409 17458238.031 10 0 60989 66600.00000 0 956839.822 -20504214.666 15170148.296 10 0 60989 67500.00000 0 1430357.608 -22148825.138 12587945.842 10 0 60989 68400.00000 0 1684929.602 -23506176.042 9761458.105 10 0 60989 69300.00000 0 1757542.820 -24528933.294 6745352.195 10 0 60989 70200.00000 0 1693470.946 -25180195.989 3598091.028 10 0 60989 71100.00000 0 1544125.331 -25435034.549 380806.395 10 0 60989 72000.00000 0 1364638.222 -25281549.120 -2843889.713 10 0 60989 72900.00000 0 1211280.547 -24721400.614 -6013132.208 10 0 60989 73800.00000 0 1138824.708 -23769788.858 -9065043.551 10 0 60989 74700.00000 0 1197966.129 -22454875.950 -11939962.039 10 0 60989 75600.00000 0 1432915.574 -20816676.943 -14581631.630 10 0 60989 76500.00000 0 1879267.573 -18905463.230 -16938327.589 10 0 60989 77400.00000 0 2562238.668 -16779745.489 -18963893.452 10 0 60989 78300.00000 0 3495353.418 -14503921.586 -20618666.651 10 0 60989 79200.00000 0 4679636.619 -12145689.586 -21870272.726 10 0 60989 80100.00000 0 6103348.125 -9773336.356 -22694270.984 10 0 60989 81000.00000 0 7742272.890 -7453017.551 -23074638.054 10 0 60989 81900.00000 0 9560554.567 -5246144.884 -23004079.488 10 0 60989 82800.00000 0 11512037.298 -3206991.603 -22484163.513 10 0 60989 83700.00000 0 13542058.320 -1380617.182 -21525275.109 10 0 60989 84600.00000 0 15589614.597 198802.085 -20146392.490 10 0 60989 85500.00000 0 17589810.770 1509167.812 -18374691.970 10 0 60990 0.00000 0 19476483.856 2541131.596 -16244990.962 10 0 60990 900.00000 0 21184894.137 3298219.739 -13799040.781 10 0 60990 1800.00000 0 22654365.946 3796407.682 -11084688.012 10 0 60990 2700.00000 0 23830770.698 4063167.793 -8154918.973 10 0 60990 3600.00000 0 24668745.972 4136033.095 -5066810.378 10 0 60990 4500.00000 0 25133559.849 4060741.649 -1880407.064 10 0 60990 5400.00000 0 25202544.057 3889042.716 1342450.167 10 0 60990 6300.00000 0 24866038.218 3676259.442 4539323.281 10 0 60990 7200.00000 0 24127808.256 3478712.135 7648378.988 10 0 60990 8100.00000 0 23004924.028 3351111.094 10609571.248 10 0 60990 9000.00000 0 21527103.564 3344028.307 13365782.563 10 0 60990 9900.00000 0 19735553.003 3501553.233 15863903.581 10 0 60990 10800.00000 0 17681351.570 3859229.547 18055832.275 10 0 60990 11700.00000 0 15423448.887 4442357.684 19899375.738 10 0 60990 12600.00000 0 13026357.099 5264732.747 21359039.639 10 0 60990 13500.00000 0 10557631.952 6327869.434 22406692.456 10 0 60990 14400.00000 0 8085244.968 7620746.036 23022093.748 10 0 60990 15300.00000 0 5674952.854 9120078.613 23193277.790 10 0 60990 16200.00000 0 3387770.183 10791115.344 22916786.082 10 0 60990 17100.00000 0 1277647.242 12588920.232 22197744.357 10 0 60990 18000.00000 0 -610553.027 14460095.617 21049781.922 10 0 60990 18900.00000 0 -2242696.800 16344875.133 19494793.457 10 0 60990 19800.00000 0 -3596572.489 18179503.334 17562545.732 10 0 60990 20700.00000 0 -4662585.577 19898805.911 15290134.265 10 0 60990 21600.00000 0 -5443925.391 21438845.745 12721297.582 10 0 60990 22500.00000 0 -5956195.438 22739555.406 9905599.439 10 0 60990 23400.00000 0 -6226520.932 23747236.456 6897492.286 10 0 60990 24300.00000 0 -6292169.151 24416820.177 3755277.979 10 0 60990 25200.00000 0 -6198739.023 24713793.142 539984.452 10 0 60990 26100.00000 0 -5997995.206 24615704.128 -2685820.469 10 0 60990 27000.00000 0 -5745437.819 24113185.799 -5859254.856 10 0 60990 27900.00000 0 -5497711.205 23210444.734 -8918363.269 10 0 60990 28800.00000 0 -5309962.923 21925195.890 -11803346.274 10 0 60990 29700.00000 0 -5233267.147 20288041.461 -14457752.772 10 0 60990 30600.00000 0 -5312224.545 18341318.204 -16829609.422 10 0 60990 31500.00000 0 -5582843.560 16137460.651 -18872462.539 10 0 60990 32400.00000 0 -6070796.073 13736948.812 -20546309.743 10 0 60990 33300.00000 0 -6790124.217 11205927.276 -21818401.108 10 0 60990 34200.00000 0 -7742455.457 8613597.058 -22663892.528 10 0 60990 35100.00000 0 -8916760.740 6029491.299 -23066337.537 10 0 60990 36000.00000 0 -10289666.769 3520750.812 -23018007.560 10 0 60990 36900.00000 0 -11826309.182 1149515.174 -22520034.486 10 0 60990 37800.00000 0 -13481689.901 -1029460.435 -21582373.546 10 0 60990 38700.00000 0 -15202480.120 -2970862.658 -20223588.392 10 0 60990 39600.00000 0 -16929191.285 -4640466.245 -18470464.164 10 0 60990 40500.00000 0 -18598620.887 -6016301.924 -16357457.938 10 0 60990 41400.00000 0 -20146468.500 -7089299.531 -13925999.276 10 0 60990 42300.00000 0 -21510010.726 -7863382.762 -11223656.558 10 0 60990 43200.00000 0 -22630721.828 -8355015.411 -8303187.329 10 0 60990 44100.00000 0 -23456729.870 -8592222.230 -5221492.924 10 0 60990 45000.00000 0 -23945005.794 -8613129.515 -2038499.218 10 0 60990 45900.00000 0 -24063194.851 -8464090.367 1184013.635 10 0 60990 46800.00000 0 -23791015.425 -8197476.417 4383609.165 10 0 60990 47700.00000 0 -23121168.833 -7869230.951 7498396.920 10 0 60990 48600.00000 0 -22059724.372 -7536287.516 10468216.399 10 0 60990 49500.00000 0 -20625965.681 -7253962.655 13235780.792 10 0 60990 50400.00000 0 -18851706.641 -7073431.665 15747760.016 10 0 60990 51300.00000 0 -16780106.476 -7039391.983 17955784.180 10 0 60990 52200.00000 0 -14464033.687 -7188010.450 19817350.489 10 0 60990 53100.00000 0 -11964046.284 -7545238.660 21296618.507 10 0 60990 54000.00000 0 -9346070.730 -8125565.311 22365080.811 10 0 60990 54900.00000 0 -6678873.576 -8931256.722 23002098.195 10 0 60990 55800.00000 0 -4031427.807 -9952116.970 23195290.639 10 0 60990 56700.00000 0 -1470279.856 -11165778.343 22940777.433 10 0 60990 57600.00000 0 942976.791 -12538511.568 22243261.975 10 0 60990 58500.00000 0 3154019.485 -14026524.409 21115958.967 10 0 60990 59400.00000 0 5117811.915 -15577697.481 19580363.973 10 0 60990 60300.00000 0 6800234.991 -17133688.112 17665867.705 10 0 60990 61200.00000 0 8179265.799 -18632317.631 15409219.933 10 0 60990 62100.00000 0 9245655.176 -20010145.087 12853850.507 10 0 60990 63000.00000 0 10003074.540 -21205121.727 10049057.779 10 0 60990 63900.00000 0 10467724.143 -22159216.057 7049077.522 10 0 60990 64800.00000 0 10667417.294 -22820899.240 3912048.259 10 0 60990 65700.00000 0 10640177.207 -23147385.186 698891.556 10 0 60990 66600.00000 0 10432404.123 -23106528.861 -2527871.610 10 0 60990 67500.00000 0 10096689.217 -22678299.855 -5705345.296 10 0 60990 68400.00000 0 9689367.700 -21855765.632 -8771499.078 10 0 60990 69300.00000 0 9267915.551 -20645539.459 -11666398.751 10 0 60990 70200.00000 0 8888301.842 -19067670.800 -14333401.124 10 0 60990 71100.00000 0 8602411.283 -17154980.094 -16720287.145 10 0 60990 72000.00000 0 8455649.059 -14951864.030 -18780308.673 10 0 60990 72900.00000 0 8484832.492 -12512620.609 -20473126.058 10 0 60990 73800.00000 0 8716461.668 -9899364.364 -21765616.136 10 0 60990 74700.00000 0 9165444.694 -7179620.058 -22632533.227 10 0 60990 75600.00000 0 9834333.292 -4423697.126 -23057009.173 10 0 60990 76500.00000 0 10713102.019 -1701956.502 -23030882.198 10 0 60990 77400.00000 0 11779480.604 917914.080 -22554848.319 10 0 60990 78300.00000 0 12999824.676 3373501.078 -21638433.027 10 0 60990 79200.00000 0 14330486.874 5610032.968 -20299784.990 10 0 60990 80100.00000 0 15719628.654 7582416.029 -18565297.346 10 0 60990 81000.00000 0 17109394.421 9256854.017 -16469065.816 10 0 60990 81900.00000 0 18438354.317 10611986.011 -14052196.205 10 0 60990 82800.00000 0 19644111.003 11639497.626 -11361976.858 10 0 60990 83700.00000 0 20665959.352 12344183.541 -8450934.184 10 0 60990 84600.00000 0 21447486.434 12743462.693 -5375791.437 10 0 60990 85500.00000 0 21939002.403 12866370.536 -2196352.564 10 0 60991 0.00000 0 22099700.855 12752074.575 1025665.779 10 0 60991 900.00000 0 21899459.258 12447978.800 4227832.499 10 0 60991 1800.00000 0 21320205.587 12007499.507 7348202.890 10 0 60991 2700.00000 0 20356796.257 11487607.437 10326505.075 10 0 60991 3600.00000 0 19017370.359 10946240.311 13105285.849 10 0 60991 4500.00000 0 17323167.341 10439694.143 15630997.073 10 0 60991 5400.00000 0 15307816.967 10020101.718 17855003.420 10 0 60991 6300.00000 0 13016131.641 9733102.287 19734494.358 10 0 60991 7200.00000 0 10502451.022 9615798.147 21233285.211 10 0 60991 8100.00000 0 7828606.439 9695081.671 22322494.223 10 0 60991 9000.00000 0 5061587.465 9986401.167 22981084.662 10 0 60991 9900.00000 0 2271004.652 10493016.168 23196263.089 10 0 60991 10800.00000 0 -473549.682 11205773.125 22963727.065 10 0 60991 11700.00000 0 -3105136.641 12103411.661 22287757.710 10 0 60991 12600.00000 0 -5561995.880 13153390.281 21181154.719 10 0 60991 13500.00000 0 -7789858.665 14313199.519 19665013.682 10 0 60991 14400.00000 0 -9743954.865 15532110.585 17768347.978 10 0 60991 15300.00000 0 -11390631.455 16753289.534 15527559.955 10 0 60991 16200.00000 0 -12708515.326 17916191.365 12985768.815 10 0 60991 17100.00000 0 -13689171.108 18959136.135 10192005.277 10 0 60991 18000.00000 0 -14337225.060 19821960.488 7200286.042 10 0 60991 18900.00000 0 -14669947.930 20448633.690 4068583.769 10 0 60991 19800.00000 0 -14716312.321 20789727.425 857711.040 10 0 60991 20700.00000 0 -14515562.373 20804633.558 -2369860.713 10 0 60991 21600.00000 0 -14115354.808 20463433.662 -5551224.272 10 0 60991 22500.00000 0 -13569549.235 19748338.099 -8624276.986 10 0 60991 23400.00000 0 -12935741.427 18654630.223 -11528952.609 10 0 60991 24300.00000 0 -12272645.127 17191072.273 -14208418.506 10 0 60991 25200.00000 0 -11637435.136 15379752.545 -16610212.424 10 0 60991 26100.00000 0 -11083166.725 13255377.781 -18687294.085 10 0 60991 27000.00000 0 -10656383.399 10864038.820 -20398988.652 10 0 60991 27900.00000 0 -10395017.088 8261500.679 -21711801.546 10 0 60991 28800.00000 0 -10326672.074 5511089.022 -22600087.048 10 0 60991 29700.00000 0 -10467367.126 2681262.569 -23046556.513 10 0 60991 30600.00000 0 -10820790.147 -157025.506 -23042615.824 10 0 60991 31500.00000 0 -11378097.127 -2933065.113 -22588525.570 10 0 60991 32400.00000 0 -12118263.306 -5579109.785 -21693381.528 10 0 60991 33300.00000 0 -13008970.425 -8032965.464 -20374916.948 10 0 60991 34200.00000 0 -14007990.692 -10240338.933 -18659132.078 10 0 60991 35100.00000 0 -15065006.819 -12156848.225 -16579759.973 10 0 60991 36000.00000 0 -16123788.979 -13749612.353 -14177580.997 10 0 60991 36900.00000 0 -17124634.626 -14998356.122 -11499601.467 10 0 60991 37800.00000 0 -18006966.463 -15895986.873 -8598114.425 10 0 60991 38700.00000 0 -18711977.779 -16448622.636 -5529662.645 10 0 60991 39600.00000 0 -19185213.092 -16675074.466 -2353925.616 10 0 60991 40500.00000 0 -19378975.581 -16605808.612 867446.719 10 0 60991 41400.00000 0 -19254460.868 -16281435.719 4072030.190 10 0 60991 42300.00000 0 -18783528.847 -15750793.498 7197829.207 10 0 60991 43200.00000 0 -17950040.999 -15068705.574 10184463.355 10 0 60991 44100.00000 0 -16750709.010 -14293511.793 12974315.861 10 0 60991 45000.00000 0 -15195420.986 -13484473.854 15513623.304 10 0 60991 45900.00000 0 -13307032.996 -12699164.341 17753487.545 10 0 60991 46800.00000 0 -11120635.329 -11990947.057 19650792.725 10 0 60991 47700.00000 0 -8682323.987 -11406652.203 21169012.036 10 0 60991 48600.00000 0 -6047527.463 -10984541.434 22278891.143 10 0 60991 49500.00000 0 -3278956.403 -10752645.817 22958997.156 10 0 60991 50400.00000 0 -444258.591 -10727544.527 23196124.186 10 0 60991 51300.00000 0 2386526.768 -10913634.359 22985548.644 10 0 60991 52200.00000 0 5143613.483 -11302920.522 22331129.585 10 0 60991 53100.00000 0 7760105.339 -11875338.363 21245251.563 10 0 60991 54000.00000 0 10174519.359 -12599594.292 19748609.748 10 0 60991 54900.00000 0 12333093.084 -13434493.203 17869839.420 10 0 60991 55800.00000 0 14191781.525 -14330699.638 15644994.430 10 0 60991 56700.00000 0 15717861.283 -15232861.790 13116881.909 10 0 60991 57600.00000 0 16891074.581 -16082011.794 10334263.180 10 0 60991 58500.00000 0 17704264.167 -16818143.391 7350933.737 10 0 60991 59400.00000 0 18163470.703 -17382859.503 4224697.901 10 0 60991 60300.00000 0 18287486.426 -17721978.143 1016256.509 10 0 60991 61200.00000 0 18106881.720 -17787985.521 -2211971.545 10 0 60991 62100.00000 0 17662543.852 -17542230.595 -5397070.885 10 0 60991 63000.00000 0 17003788.370 -16956765.291 -8476869.802 10 0 60991 63900.00000 0 16186122.588 -16015749.067 -11391173.138 10 0 60991 64800.00000 0 15268756.249 -14716354.703 -14082961.842 10 0 60991 65700.00000 0 14311966.027 -13069133.474 -16499533.337 10 0 60991 66600.00000 0 13374427.429 -11097821.215 -18593557.870 10 0 60991 67500.00000 0 12510629.465 -8838591.082 -20324027.816 10 0 60991 68400.00000 0 11768484.058 -6338783.031 -21657079.262 10 0 60991 69300.00000 0 11187233.733 -3655162.884 -22566668.142 10 0 60991 70200.00000 0 10795748.001 -851784.414 -23035086.602 10 0 60991 71100.00000 0 10611281.672 2002454.978 -23053309.005 10 0 60991 72000.00000 0 10638748.023 4836461.193 -22621160.890 10 0 60991 72900.00000 0 10870537.031 7579680.775 -21747308.234 10 0 60991 73800.00000 0 11286885.097 10164812.882 -20449068.365 10 0 60991 74700.00000 0 11856778.662 12530381.761 -18752047.733 10 0 60991 75600.00000 0 12539351.138 14623062.053 -16689615.428 10 0 60991 76500.00000 0 13285711.487 16399660.533 -14302224.703 10 0 60991 77400.00000 0 14041124.605 17828672.982 -11636597.821 10 0 60991 78300.00000 0 14747449.099 18891353.559 -8744792.084 10 0 60991 79200.00000 0 15345727.725 19582255.095 -5683167.117 10 0 60991 80100.00000 0 15778819.982 19909221.281 -2511275.031 10 0 60991 81000.00000 0 15993965.412 19892834.956 709303.744 10 0 60991 81900.00000 0 15945169.910 19565349.324 3916155.707 10 0 60991 82800.00000 0 15595315.537 18969150.234 7047237.240 10 0 60991 83700.00000 0 14917906.630 18154816.590 10042062.430 10 0 60991 84600.00000 0 13898380.607 17178861.948 12842853.811 10 0 60991 85500.00000 0 12534930.297 16101252.647 15395635.329 10 0 60992 0.00000 0 10838805.015 14982806.274 17651248.258 10 0 60992 900.00000 0 8834077.751 13882577.541 19566273.957 10 0 60992 1800.00000 0 6556890.751 12855340.585 21103845.144 10 0 60992 2700.00000 0 4054207.190 11949268.618 22234336.465 10 0 60992 3600.00000 0 1382121.417 11203906.960 22935920.106 10 0 60992 4500.00000 0 -1396205.326 10648521.362 23194978.590 10 0 60992 5400.00000 0 -4212901.023 10300889.037 23006367.634 10 0 60992 6300.00000 0 -6997936.709 10166581.993 22373524.225 10 0 60992 7200.00000 0 -9681775.684 10238772.693 21308417.297 10 0 60992 8100.00000 0 -12198011.630 10498571.061 19831340.635 10 0 60992 9000.00000 0 -14485889.012 10915880.554 17970549.977 10 0 60992 9900.00000 0 -16492603.011 11450739.787 15761748.813 10 0 60992 10800.00000 0 -18175284.361 12055096.141 13247429.992 10 0 60992 11700.00000 0 -19502586.402 12674939.464 10476082.965 10 0 60992 12600.00000 0 -20455807.100 13252708.340 7501279.382 10 0 60992 13500.00000 0 -21029497.417 13729869.012 4380652.506 10 0 60992 14400.00000 0 -21231528.317 14049558.720 1174788.671 10 0 60992 15300.00000 0 -21082611.217 14159181.223 -2053948.499 10 0 60992 16200.00000 0 -20615289.887 14012843.135 -5242638.193 10 0 60992 17100.00000 0 -19872444.593 13573525.440 -8329042.311 10 0 60992 18000.00000 0 -18905370.595 12814894.969 -11252839.401 10 0 60992 18900.00000 0 -17771512.095 11722675.535 -13956826.507 10 0 60992 19800.00000 0 -16531948.082 10295516.968 -16388063.076 10 0 60992 20700.00000 0 -15248737.943 8545321.908 -18498932.025 10 0 60992 21600.00000 0 -13982241.073 6497013.709 -20248094.807 10 0 60992 22500.00000 0 -12788526.183 4187753.139 -21601319.727 10 0 60992 23400.00000 0 -11716982.085 1665635.730 -22532165.582 10 0 60992 24300.00000 0 -10808232.885 -1012075.750 -23022506.146 10 0 60992 25200.00000 0 -10092447.003 -3781109.025 -23062884.724 10 0 60992 26100.00000 0 -9588112.032 -6572638.640 -22652691.869 10 0 60992 27000.00000 0 -9301326.845 -9315936.664 -21800163.447 10 0 60992 27900.00000 0 -9225639.656 -11941105.423 -20522200.160 10 0 60992 28800.00000 0 -9342436.926 -14381776.813 -18844013.591 10 0 60992 29700.00000 0 -9621864.115 -16577664.730 -16798607.471 10 0 60992 30600.00000 0 -10024236.480 -18476864.024 -14426106.272 10 0 60992 31500.00000 0 -10501877.289 -20037800.753 -11772946.311 10 0 60992 32400.00000 0 -11001302.972 -21230753.973 -8890947.122 10 0 60992 33300.00000 0 -11465660.460 -22038887.954 -5836283.036 10 0 60992 34200.00000 0 -11837311.979 -22458754.773 -2668376.585 10 0 60992 35100.00000 0 -12060457.100 -22500249.774 551263.563 10 0 60992 36000.00000 0 -12083681.173 -22186025.402 3760236.893 10 0 60992 36900.00000 0 -11862323.183 -21550391.347 6896454.133 10 0 60992 37800.00000 0 -11360564.468 -20637749.954 9899326.304 10 0 60992 38700.00000 0 -10553151.982 -19500634.538 12710917.728 10 0 60992 39600.00000 0 -9426685.467 -18197433.890 15277042.201 10 0 60992 40500.00000 0 -7980416.178 -16789898.349 17548283.210 10 0 60992 41400.00000 0 -6226524.898 -15340530.880 19480920.820 10 0 60992 42300.00000 0 -4189868.181 -13909970.524 21037749.798 10 0 60992 43200.00000 0 -1907203.101 -12554475.194 22188775.612 10 0 60992 44100.00000 0 574078.439 -11323606.288 22911777.049 10 0 60992 45000.00000 0 3197655.341 -10258209.144 23192726.233 10 0 60992 45900.00000 0 5900354.879 -9388771.364 23026059.016 10 0 60992 46800.00000 0 8614519.499 -8734225.900 22414790.800 10 0 60992 47700.00000 0 11270568.225 -8301248.054 21370475.040 10 0 60992 48600.00000 0 13799650.022 -8084075.940 19913003.929 10 0 60992 49500.00000 0 16136282.122 -8064862.907 18070253.131 10 0 60992 50400.00000 0 18220866.062 -8214548.971 15877574.888 10 0 60992 51300.00000 0 20001978.264 -8494216.981 13377146.517 10 0 60992 52200.00000 0 21438340.125 -8856879.026 10617183.960 10 0 60992 53100.00000 0 22500384.779 -9249620.214 7651032.988 10 0 60992 54000.00000 0 23171353.445 -9616011.259 4536153.380 10 0 60992 54900.00000 0 23447873.309 -9898689.044 1333014.189 10 0 60992 55800.00000 0 23339990.065 -10041996.083 -1896079.288 10 0 60992 56700.00000 0 22870651.255 -9994566.184 -5088204.032 10 0 60992 57600.00000 0 22074659.916 -9711744.746 -8181058.853 10 0 60992 58500.00000 0 20997141.044 -9157738.304 -11114199.249 10 0 60992 59400.00000 0 19691584.794 -8307398.800 -13830241.470 10 0 60992 60300.00000 0 18217549.083 -7147563.312 -16276009.902 10 0 60992 61200.00000 0 16638119.543 -5677888.952 -18403602.785 10 0 60992 62100.00000 0 15017235.727 -3911144.417 -20171353.033 10 0 60992 63000.00000 0 13416998.456 -1872943.347 -21544663.235 10 0 60992 63900.00000 0 11895074.202 399070.953 -22496696.771 10 0 60992 64800.00000 0 10502308.009 2856555.963 -23008910.390 10 0 60992 65700.00000 0 9280647.181 5442259.574 -23071417.278 10 0 60992 66600.00000 0 8261464.103 8092193.034 -22683173.522 10 0 60992 67500.00000 0 7464348.865 10738094.853 -21851984.949 10 0 60992 68400.00000 0 6896421.633 13310081.043 -20594335.275 10 0 60992 69300.00000 0 6552191.892 15739369.303 -18935040.425 10 0 60992 70200.00000 0 6413967.956 17960962.168 -16906737.562 10 0 60992 71100.00000 0 6452796.335 19916176.376 -14549220.765 10 0 60992 72000.00000 0 6629887.990 21554912.901 -11908638.407 10 0 60992 72900.00000 0 6898467.909 22837573.764 -9036569.888 10 0 60992 73800.00000 0 7205966.906 23736547.298 -5989001.565 10 0 60992 74700.00000 0 7496460.587 24237202.261 -2825223.437 10 0 60992 75600.00000 0 7713250.761 24338352.314 393330.738 10 0 60992 76500.00000 0 7801479.416 24052174.760 3604276.669 10 0 60992 77400.00000 0 7710664.914 23403590.273 6745482.680 10 0 60992 78300.00000 0 7397054.185 22429132.575 9756259.898 10 0 60992 79200.00000 0 6825693.183 21175357.721 12578517.439 10 0 60992 80100.00000 0 5972130.138 19696861.077 15157861.755 10 0 60992 81000.00000 0 4823681.799 18053985.408 17444620.912 10 0 60992 81900.00000 0 3380211.019 16310315.375 19394776.375 10 0 60992 82800.00000 0 1654384.045 14530061.633 20970786.738 10 0 60992 83700.00000 0 -328603.064 12775441.502 22142289.968 10 0 60992 84600.00000 0 -2531818.260 11104162.745 22886672.775 10 0 60992 85500.00000 0 -4907876.146 9567112.496 23189497.818 99